TimeEET,TemperatureF,Dew PointF,Humidity,Sea Level PressureIn,VisibilityMPH,Wind Direction,Wind SpeedMPH,Gust SpeedMPH,PrecipitationIn,Events,Conditions,WindDirDegrees,DateUTC
1:50 AM,60.8,51.8,72,30.01,6.2,SE,5.8,-,N/A,,Mostly Cloudy,130,2012-11-27 23:50:00
2:00 AM,60,51,65,30.03,6,SE,5.8,,,,Scattered Clouds,130,2012-11-28 00:00:00
3:20 AM,60.8,50.0,68,30.01,6.2,Calm,Calm,-,N/A,,Mostly Cloudy,0,2012-11-28 01:20:00
4:50 AM,60.8,51.8,72,29.98,6.2,SE,8.1,-,N/A,,Mostly Cloudy,140,2012-11-28 02:50:00
5:20 AM,59.0,51.8,77,29.98,6.2,SE,6.9,-,N/A,,Mostly Cloudy,143,2012-11-28 03:20:00
5:50 AM,59.0,51.8,77,29.98,6.2,SSE,8.1,-,N/A,,Mostly Cloudy,150,2012-11-28 03:50:00
6:50 AM,60.8,53.6,77,29.98,6.2,SE,10.4,-,N/A,,Mostly Cloudy,140,2012-11-28 04:50:00
7:20 AM,60.8,53.6,77,29.98,6.2,SSE,8.1,-,N/A,,Mostly Cloudy,150,2012-11-28 05:20:00
7:50 AM,60.8,53.6,77,29.98,6.2,SE,6.9,-,N/A,,Mostly Cloudy,130,2012-11-28 05:50:00
8:00 AM,61,54,71,29.99,6,SE,6.9,,,,Partly Cloudy,130,2012-11-28 06:00:00
8:20 AM,59.0,55.4,88,29.98,4.3,ESE,6.9,-,N/A,Rain,Light Rain,120,2012-11-28 06:20:00
8:50 AM,60.8,55.4,82,29.98,5.6,SE,8.1,-,N/A,,Overcast,130,2012-11-28 06:50:00
9:20 AM,60.8,55.4,82,29.98,5.6,SE,8.1,-,N/A,,Overcast,130,2012-11-28 07:20:00
9:50 AM,64.4,57.2,77,29.98,6.2,SE,11.5,-,N/A,,Mostly Cloudy,140,2012-11-28 07:50:00
10:20 AM,64.4,57.2,77,29.98,6.2,SE,11.5,-,N/A,,Mostly Cloudy,140,2012-11-28 08:20:00
10:50 AM,66.2,59.0,78,29.98,6.2,SSE,11.5,-,N/A,,Mostly Cloudy,150,2012-11-28 08:50:00
11:20 AM,66.2,59.0,78,29.98,6.2,SSE,13.8,-,N/A,,Mostly Cloudy,150,2012-11-28 09:20:00
11:50 AM,66.2,59.0,78,29.95,6.2,SSE,11.5,-,N/A,,Mostly Cloudy,150,2012-11-28 09:50:00
12:20 PM,66.2,59.0,78,29.95,6.2,SSE,11.5,-,N/A,,Mostly Cloudy,150,2012-11-28 10:20:00
12:50 PM,68.0,60.8,78,29.95,6.2,SSE,15.0,-,N/A,,Mostly Cloudy,160,2012-11-28 10:50:00
1:20 PM,68.0,59.0,73,29.92,6.2,SSE,15.0,-,N/A,,Mostly Cloudy,160,2012-11-28 11:20:00
1:50 PM,69.8,59.0,68,29.92,6.2,SSE,15.0,-,N/A,,Mostly Cloudy,160,2012-11-28 11:50:00
2:00 PM,69,59,62,29.92,6,SSE,15.0,,,,Partly Cloudy,160,2012-11-28 12:00:00
2:20 PM,68.0,57.2,68,29.89,6.2,SSE,18.4,-,N/A,,Mostly Cloudy,160,2012-11-28 12:20:00
2:50 PM,68.0,57.2,68,29.89,6.2,SSE,16.1,-,N/A,,Mostly Cloudy,160,2012-11-28 12:50:00
3:20 PM,68.0,57.2,68,29.89,6.2,SSE,16.1,-,N/A,,Mostly Cloudy,160,2012-11-28 13:20:00
3:50 PM,68.0,57.2,68,29.89,6.2,SSE,20.7,-,N/A,,Scattered Clouds,160,2012-11-28 13:50:00
4:20 PM,68.0,57.2,68,29.89,6.2,SSE,20.7,-,N/A,,Scattered Clouds,160,2012-11-28 14:20:00
4:50 PM,66.2,57.2,73,29.89,6.2,SSE,15.0,-,N/A,,Scattered Clouds,150,2012-11-28 14:50:00
5:20 PM,66.2,57.2,73,29.89,6.2,SSE,15.0,-,N/A,,Scattered Clouds,150,2012-11-28 15:20:00
5:50 PM,66.2,55.4,68,29.89,6.2,SSE,17.3,-,N/A,,Scattered Clouds,150,2012-11-28 15:50:00
6:20 PM,66.2,55.4,68,29.89,6.2,SSE,17.3,-,N/A,,Scattered Clouds,150,2012-11-28 16:20:00
6:50 PM,66.2,55.4,68,30.12,6.2,SSE,13.8,-,N/A,,Scattered Clouds,150,2012-11-28 16:50:00
7:20 PM,66.2,55.4,68,30.12,6.2,SSE,13.8,-,N/A,,Scattered Clouds,150,2012-11-28 17:20:00
7:50 PM,64.4,53.6,68,29.89,6.2,SSE,13.8,-,N/A,,Scattered Clouds,160,2012-11-28 17:50:00
8:00 PM,65,54,60,29.89,6,SSE,13.8,,,,Scattered Clouds,160,2012-11-28 18:00:00
8:20 PM,64.4,53.6,68,29.89,6.2,SSE,13.8,-,N/A,,Scattered Clouds,160,2012-11-28 18:20:00
8:50 PM,64.4,53.6,68,29.89,6.2,SSE,13.8,-,N/A,,Scattered Clouds,160,2012-11-28 18:50:00
9:20 PM,64.4,53.6,68,29.89,6.2,SSE,13.8,-,N/A,,Scattered Clouds,160,2012-11-28 19:20:00
9:50 PM,64.4,53.6,68,29.89,6.2,SSE,15.0,-,N/A,,Scattered Clouds,160,2012-11-28 19:50:00
10:50 PM,64.4,51.8,64,29.89,6.2,SSE,12.7,-,N/A,,Scattered Clouds,150,2012-11-28 20:50:00
11:20 PM,64.4,51.8,64,29.89,6.2,SSE,12.7,-,N/A,,Scattered Clouds,150,2012-11-28 21:20:00
11:50 PM,64.4,51.8,64,29.89,6.2,SE,16.1,-,N/A,,Scattered Clouds,140,2012-11-28 21:50:00